DW1980 Weather Reports


Display with metric or nautical units.
time (UTC)temp
F
wind
direction
speed
MPH
gust
MPH
rain 1hr
in
rain 24hr
in
rain mn
in
humidity
%
barometer
mb
20260504023040 43 0 0.0 0.0 0.00 0.00 0.00 73 1011.7
20260504022916 44 288 0.0 0.0 0.00 0.00 0.00 73 1012.4
20260504022343 44 288 0.0 0.0 0.00 0.00 0.00 73 1012.4
20260504021851 44 288 0.0 0.0 0.00 0.00 0.00 72 1012.4
20260504021538 44 0 0.0 0.0 0.00 0.00 0.00 70 1011.7
20260504021503 44 288 0.0 0.0 0.00 0.00 0.00 71 1012.5
20260504021402 45 288 0.0 0.0 0.00 0.00 0.00 71 1012.3
20260504020851 45 288 0.0 0.0 0.00 0.00 0.00 70 1012.2
20260504020342 45 288 0.0 0.0 0.00 0.00 0.00 69 1012.3
20260504020043 45 0 0.0 0.0 0.00 0.00 0.00 68 1011.7
20260504015336 46 288 0.0 0.0 0.00 0.00 0.00 68 1012.2
20260504014846 46 288 0.0 0.0 0.00 0.00 0.00 68 1012.2
20260504014610 46 288 0.0 0.0 0.00 0.00 0.00 68 1012.2
20260504014543 46 0 0.0 1.0 0.00 0.00 0.00 68 1011.6
20260504014337 47 288 0.0 1.0 0.00 0.00 0.00 68 1012.2
20260504013908 47 288 0.0 1.0 0.00 0.00 0.00 67 1012.2
20260504013357 48 288 0.0 1.0 0.00 0.00 0.00 66 1012.1
20260504013119 47 288 0.0 2.0 0.00 0.00 0.00 65 1012.1
20260504013043 47 0 0.0 2.0 0.00 0.00 0.00 65 1011.5
20260504012843 48 288 0.0 2.0 0.00 0.00 0.00 65 1012.1
20260504012353 48 288 0.0 2.0 0.00 0.00 0.00 64 1012.1
20260504011844 49 288 0.0 1.0 0.00 0.00 0.00 62 1012.0
20260504011613 48 288 0.0 1.0 0.00 0.00 0.00 62 1012.2
20260504011546 49 0 0.0 1.0 0.00 0.00 0.00 62 1011.4
20260504011354 49 288 0.0 1.0 0.00 0.00 0.00 62 1012.0
20260504010902 50 288 0.0 1.0 0.00 0.00 0.00 61 1011.9
20260504010414 50 288 0.0 1.0 0.00 0.00 0.00 60 1011.8
20260504010111 50 288 0.0 1.0 0.00 0.00 0.00 58 1011.9
20260504010041 50 0 0.0 1.0 0.00 0.00 0.00 58 1011.2
20260504005918 51 288 0.0 1.0 0.00 0.00 0.00 57 1011.7
20260504005405 51 288 0.0 1.0 0.00 0.00 0.00 56 1011.6
20260504004915 52 288 0.0 1.0 0.00 0.00 0.00 54 1011.6
20260504004622 51 288 0.0 2.0 0.00 0.00 0.00 54 1011.7
20260504004538 52 0 0.0 2.0 0.00 0.00 0.00 53 1011.0
20260504004344 52 288 0.0 2.0 0.00 0.00 0.00 52 1011.6
20260504003836 53 288 1.0 2.0 0.00 0.00 0.00 52 1011.5
20260504003348 54 288 0.0 1.0 0.00 0.00 0.00 52 1011.4
20260504003119 53 288 0.0 1.0 0.00 0.00 0.00 50 1011.5
20260504003037 53 0 0.0 1.0 0.00 0.00 0.00 50 1010.8
20260504002836 54 288 0.0 1.0 0.00 0.00 0.00 49 1011.3
20260504002346 55 288 0.0 2.0 0.00 0.00 0.00 47 1011.2
20260504001837 55 288 0.0 2.0 0.00 0.00 0.00 45 1011.1
20260504001609 55 288 0.0 2.0 0.00 0.00 0.00 45 1011.2
20260504001544 55 288 1.0 3.0 0.00 0.00 0.00 44 1010.6
20260504001347 55 288 2.0 2.0 0.00 0.00 0.00 43 1011.1
20260504000837 56 289 0.0 4.0 0.00 0.00 0.00 42 1011.0
20260504000348 56 291 1.0 4.0 0.00 0.00 0.00 41 1010.9
20260504000130 56 291 1.0 4.0 0.00 0.00 0.00 41 1011.0
20260504000047 56 292 2.0 5.0 0.00 0.00 0.00 40 1010.4
20260503235855 56 299 2.0 5.0 0.00 0.00 0.00 40 1010.9
20260503235407 56 284 2.0 9.0 0.00 0.00 0.00 41 1010.8
20260503234837 56 292 4.0 9.0 0.00 0.00 0.00 39 1010.7
20260503234605 56 298 2.0 7.0 0.00 0.00 0.00 40 1010.8
20260503234540 56 291 2.0 7.0 0.00 0.00 0.00 40 1010.3
20260503234348 57 305 3.0 7.0 0.00 0.00 0.00 39 1010.7
20260503233836 57 311 1.0 5.0 0.00 0.00 0.00 40 1010.6
20260503233348 57 286 2.0 5.0 0.00 0.00 0.00 38 1010.5
20260503233111 57 297 1.0 5.0 0.00 0.00 0.00 38 1010.6
20260503233038 57 287 2.0 6.0 0.00 0.00 0.00 37 1010.1
20260503232855 57 277 3.0 5.0 0.00 0.00 0.00 37 1010.5
20260503232345 58 311 3.0 5.0 0.00 0.00 0.00 36 1010.4
20260503231836 58 324 1.0 8.0 0.00 0.00 0.00 38 1010.3
20260503231605 57 275 3.0 11.0 0.00 0.00 0.00 39 1010.4
20260503231543 58 298 2.0 11.0 0.00 0.00 0.00 39 1009.9
20260503231347 58 296 2.0 11.0 0.00 0.00 0.00 36 1010.3
20260503230837 58 293 3.0 8.0 0.00 0.00 0.00 36 1010.3
20260503230349 58 295 2.0 15.0 0.00 0.00 0.00 35 1010.2
20260503230116 58 294 3.0 15.0 0.00 0.00 0.00 35 1010.3
20260503230059 58 279 6.0 15.0 0.00 0.00 0.00 36 1009.8
20260503225836 58 342 7.0 13.0 0.00 0.00 0.00 35 1010.2
20260503225346 58 274 3.0 8.0 0.00 0.00 0.00 35 1010.1
20260503224840 58 279 3.0 15.0 0.00 0.00 0.00 35 1010.1
20260503224602 58 271 4.0 15.0 0.00 0.00 0.00 35 1010.1
20260503224536 58 302 6.0 15.0 0.00 0.00 0.00 34 1009.6
20260503224348 58 293 7.0 15.0 0.00 0.00 0.00 34 1010.1
20260503223839 58 338 3.0 8.0 0.00 0.00 0.00 35 1010.1
20260503223411 58 293 3.0 10.0 0.00 0.00 0.00 35 1010.0
20260503223110 57 265 4.0 10.0 0.00 0.00 0.00 34 1010.1
20260503223042 58 263 3.0 10.0 0.00 0.00 0.00 33 1009.6
20260503222837 58 301 3.0 10.0 0.00 0.00 0.00 34 1010.0
20260503222347 58 284 3.0 13.0 0.00 0.00 0.00 33 1010.0
20260503221838 58 280 6.0 13.0 0.00 0.00 0.00 35 1010.1
20260503221602 58 256 4.0 13.0 0.00 0.00 0.00 35 1010.1
20260503221538 58 293 6.0 14.0 0.00 0.00 0.00 33 1009.6
20260503221349 58 280 7.0 14.0 0.00 0.00 0.00 33 1010.0
20260503220839 58 323 6.0 14.0 0.00 0.00 0.00 33 1010.1
20260503220350 59 284 3.0 16.0 0.00 0.00 0.00 35 1010.1
20260503220112 58 276 5.0 16.0 0.00 0.00 0.00 32 1010.2
20260503220040 58 306 7.0 16.0 0.00 0.00 0.00 33 1009.6
20260503215857 59 319 7.0 16.0 0.00 0.00 0.00 33 1010.2
20260503215345 59 273 8.0 15.0 0.00 0.00 0.00 33 1010.1
20260503214916 59 292 6.0 16.0 0.00 0.00 0.00 33 1010.1
20260503214603 58 69 6.0 16.0 0.00 0.00 0.00 33 1010.2
20260503214542 58 229 5.0 16.0 0.00 0.00 0.00 32 1009.5
20260503214345 59 250 4.0 16.0 0.00 0.00 0.00 35 1010.0
20260503213855 59 291 7.0 15.0 0.00 0.00 0.00 34 1010.0
20260503213345 59 279 8.0 17.0 0.00 0.00 0.00 32 1009.9
20260503213111 58 288 6.0 17.0 0.00 0.00 0.00 34 1010.0
20260503213043 58 355 8.0 20.0 0.00 0.00 0.00 33 1009.4
20260503212853 59 224 9.0 20.0 0.00 0.00 0.00 34 1009.9
20260503212342 59 277 8.0 20.0 0.00 0.00 0.00 36 1009.8
20260503211915 58 64 3.0 16.0 0.00 0.00 0.00 36 1009.9
20260503211622 58 290 5.0 16.0 0.00 0.00 0.00 36 1009.9
20260503211558 58 267 6.0 16.0 0.00 0.00 0.00 35 1009.3
20260503211344 58 275 8.0 16.0 0.00 0.00 0.00 36 1010.0
20260503210854 58 246 6.0 15.0 0.00 0.00 0.00 36 1009.9
20260503210345 58 263 5.0 14.0 0.00 0.00 0.00 36 1009.9
20260503210112 58 279 5.0 14.0 0.00 0.00 0.00 39 1010.0
20260503210039 58 310 5.0 14.0 0.00 0.00 0.00 36 1009.4
20260503205912 58 309 5.0 14.0 0.00 0.00 0.00 36 1009.8
20260503205404 58 277 5.0 14.0 0.00 0.00 0.00 38 1009.8
20260503204855 58 276 6.0 17.0 0.00 0.00 0.00 36 1009.8
20260503204602 58 292 4.0 17.0 0.00 0.00 0.00 40 1009.9
20260503204540 58 284 6.0 17.0 0.00 0.00 0.00 37 1009.3
20260503204344 58 279 9.0 17.0 0.00 0.00 0.00 38 1009.8
20260503203914 58 259 4.0 16.0 0.00 0.00 0.00 37 1009.8
20260503203403 58 249 6.0 16.0 0.00 0.00 0.00 37 1009.9
20260503203106 58 258 6.0 16.0 0.00 0.00 0.00 38 1010.0
20260503203046 57 250 6.0 18.0 0.00 0.00 0.00 36 1009.3
20260503202848 58 269 5.0 18.0 0.00 0.00 0.00 37 1010.0
20260503202338 58 336 8.0 18.0 0.00 0.00 0.00 37 1010.0
20260503201849 57 281 5.0 16.0 0.00 0.00 0.00 38 1010.0
20260503201617 57 258 8.0 22.0 0.00 0.00 0.00 37 1010.2
20260503201540 57 297 7.0 22.0 0.00 0.00 0.00 35 1009.4
20260503201340 58 202 6.0 22.0 0.00 0.00 0.00 37 1010.1
20260503200850 58 300 8.0 16.0 0.00 0.00 0.00 39 1010.1
20260503200342 58 261 8.0 15.0 0.00 0.00 0.00 39 1010.0
20260503200108 58 265 5.0 15.0 0.00 0.00 0.00 38 1010.1
20260503200054 58 5 6.0 19.0 0.00 0.00 0.00 38 1009.4
20260503195851 58 286 7.0 19.0 0.00 0.00 0.00 38 1010.1
20260503195400 58 346 4.0 19.0 0.00 0.00 0.00 40 1010.0
20260503194849 58 253 5.0 19.0 0.00 0.00 0.00 40 1010.2
20260503194617 57 259 7.0 21.0 0.00 0.00 0.00 39 1010.2
20260503194544 57 276 8.0 21.0 0.00 0.00 0.00 38 1009.6
20260503194338 58 302 7.0 21.0 0.00 0.00 0.00 40 1010.2
20260503193848 58 17 5.0 16.0 0.00 0.00 0.00 41 1010.2
20260503193340 58 240 8.0 22.0 0.00 0.00 0.00 41 1010.2
20260503193117 57 206 6.0 22.0 0.00 0.00 0.00 40 1010.3
20260503193047 57 313 8.0 22.0 0.00 0.00 0.00 39 1009.6
20260503192847 58 292 11.0 22.0 0.00 0.00 0.00 39 1010.3
20260503192336 58 324 5.0 23.0 0.00 0.00 0.00 40 1010.4
20260503191847 58 254 7.0 24.0 0.00 0.00 0.00 42 1010.4
20260503191615 57 265 4.0 15.0 0.00 0.00 0.00 42 1010.4
20260503191543 57 286 7.0 15.0 0.00 0.00 0.00 40 1009.6
20260503191342 57 292 7.0 13.0 0.00 0.00 0.00 41 1010.4
20260503190851 57 304 7.0 12.0 0.00 0.00 0.00 40 1010.6
20260503190343 57 289 4.0 17.0 0.00 0.00 0.00 42 1010.5
20260503190107 56 186 5.0 17.0 0.00 0.00 0.00 42 1010.7
20260503190050 56 299 7.0 17.0 0.00 0.00 0.00 41 1010.0
20260503185849 57 255 9.0 17.0 0.00 0.00 0.00 45 1010.7
20260503185338 56 221 5.0 14.0 0.00 0.00 0.00 42 1010.7
20260503184847 56 273 8.0 15.0 0.00 0.00 0.00 48 1010.8
20260503184611 55 275 5.0 15.0 0.00 0.00 0.00 50 1010.9
20260503184543 54 299 4.0 15.0 0.00 0.00 0.00 45 1010.1
20260503184337 54 319 6.0 15.0 0.00 0.00 0.00 47 1010.7
20260503183847 54 294 6.0 14.0 0.00 0.00 0.00 46 1010.8
20260503183358 55 295 3.0 16.0 0.00 0.00 0.00 46 1010.8
20260503183118 55 355 9.0 19.0 0.00 0.00 0.00 42 1010.9
20260503183044 55 288 6.0 19.0 0.00 0.00 0.00 42 1010.2
20260503182844 56 319 7.0 19.0 0.00 0.00 0.00 46 1010.9
20260503182413 58 325 5.0 15.0 0.00 0.00 0.00 44 1010.9
20260503181841 56 311 7.0 15.0 0.00 0.00 0.00 47 1010.8
20260503181636 55 30 4.0 15.0 0.00 0.00 0.00 47 1010.8
20260503181602 55 310 5.0 15.0 0.00 0.00 0.00 47 1010.1
20260503181352 55 337 5.0 15.0 0.00 0.00 0.00 45 1010.7
20260503180841 55 311 5.0 23.0 0.00 0.00 0.00 45 1010.8
20260503180414 55 240 10.0 23.0 0.00 0.00 0.00 44 1010.7
20260503180118 54 306 5.0 20.0 0.00 0.00 0.00 45 1010.9
20260503180050 54 308 8.0 20.0 0.00 0.00 0.00 46 1010.2
20260503175839 55 276 6.0 20.0 0.00 0.00 0.00 44 1010.9
20260503175350 55 351 8.0 17.0 0.00 0.00 0.00 44 1011.0
20260503174840 56 355 6.0 18.0 0.00 0.00 0.00 44 1010.7
20260503174609 55 28 5.0 18.0 0.00 0.00 0.00 46 1011.0
20260503174546 55 303 6.0 19.0 0.00 0.00 0.00 47 1010.2
20260503174412 54 311 8.0 19.0 0.00 0.00 0.00 46 1010.9
20260503173840 53 27 8.0 19.0 0.00 0.00 0.00 47 1010.8
20260503173349 54 327 10.0 19.0 0.00 0.00 0.00 48 1011.0
20260503173113 54 288 5.0 22.0 0.00 0.00 0.00 54 1011.0
20260503173052 54 315 7.0 22.0 0.00 0.00 0.00 49 1010.5
20260503172343 54 331 7.0 20.0 0.00 0.00 0.00 46 1011.0
20260503171853 53 298 10.0 20.0 0.00 0.00 0.00 45 1011.0
20260503171621 53 290 10.0 19.0 0.00 0.00 0.00 45 1011.2
20260503171542 53 279 7.0 16.0 0.00 0.00 0.00 45 1010.6
20260503171342 54 263 6.0 16.0 0.00 0.00 0.00 44 1011.0
20260503170912 53 283 6.0 16.0 0.00 0.00 0.00 46 1011.0
20260503170403 53 286 7.0 19.0 0.00 0.00 0.00 43 1011.0
20260503170108 53 288 5.0 20.0 0.00 0.00 0.00 43 1011.2
20260503160106 52 315 5.0 14.0 0.00 0.00 0.00 46 1011.2
20260503150850 50 273 6.0 16.0 0.00 0.00 0.00 53 1011.5
20260503150359 50 327 7.0 19.0 0.00 0.00 0.00 53 1011.5
20260503150119 49 281 7.0 19.0 0.00 0.00 0.00 52 1011.6
20260503140103 49 259 8.0 20.0 0.00 0.00 0.00 57 1011.6
20260503131353 47 9 5.0 14.0 0.00 0.00 0.00 60 1011.4
20260503130903 47 305 7.0 15.0 0.00 0.00 0.00 61 1011.5
20260503130354 47 288 9.0 15.0 0.00 0.00 0.00 62 1011.3
20260503130120 46 280 4.0 11.0 0.00 0.00 0.00 62 1011.5
20260503120115 44 294 4.0 12.0 0.00 0.00 0.00 66 1011.4
20260503110411 43 14 4.0 9.0 0.00 0.00 0.00 67 1011.1
20260503110109 43 338 1.0 9.0 0.00 0.00 0.00 67 1011.2
20260503100122 42 279 2.0 6.0 0.00 0.01 0.00 69 1010.7
20260503090352 43 306 2.0 5.0 0.00 0.02 0.00 68 1010.4
20260503090120 43 316 2.0 4.0 0.00 0.02 0.00 68 1010.4
20260503081603 43 355 2.0 6.0 0.00 0.02 0.00 67 1010.7
20260503081543 43 305 2.0 7.0 0.00 0.02 0.00 67 1009.9
20260503081350 44 35 3.0 6.0 0.00 0.02 0.00 67 1010.6
20260503080838 44 325 2.0 8.0 0.00 0.02 0.00 68 1010.6
20260503080348 44 329 2.0 9.0 0.00 0.02 0.00 67 1010.5
20260503080109 43 26 3.0 9.0 0.00 0.02 0.00 67 1010.6
20260503072851 45 323 3.0 8.0 0.00 0.02 0.00 65 1010.6
20260503072339 45 336 3.0 8.0 0.00 0.02 0.00 65 1010.6
20260503071911 45 34 3.0 6.0 0.00 0.02 0.00 64 1010.6
20260503071614 44 5 2.0 6.0 0.00 0.02 0.00 64 1010.7
20260503071541 44 5 3.0 6.0 0.00 0.02 0.00 64 1009.9
20260503071340 45 338 3.0 6.0 0.00 0.02 0.00 64 1010.5
20260503070849 45 5 2.0 10.0 0.00 0.02 0.00 64 1010.5
20260503070341 45 360 2.0 10.0 0.00 0.02 0.00 64 1010.6
20260503070120 45 351 5.0 10.0 0.00 0.02 0.00 63 1010.6
20260503060123 46 22 1.0 10.0 0.00 0.02 0.00 60 1011.0
20260503054848 47 360 3.0 10.0 0.00 0.02 0.00 60 1010.9
20260503054616 47 355 1.0 8.0 0.00 0.02 0.00 60 1011.0
20260503054542 47 360 1.0 8.0 0.00 0.02 0.00 59 1010.2
20260503054338 47 321 1.0 8.0 0.00 0.02 0.00 60 1010.9
20260503053849 47 348 4.0 8.0 0.00 0.02 0.00 59 1011.0
20260503053340 47 341 4.0 11.0 0.00 0.02 0.00 59 1011.1
20260503053106 47 323 4.0 11.0 0.00 0.02 0.00 59 1011.2
20260503053039 47 320 4.0 11.0 0.00 0.02 0.00 59 1010.4
20260503052847 47 30 4.0 8.0 0.00 0.02 0.00 60 1011.1
20260503052337 47 313 3.0 8.0 0.00 0.02 0.00 59 1011.1
20260503051846 48 281 1.0 6.0 0.00 0.02 0.00 60 1011.2
20260503051614 47 342 1.0 11.0 0.00 0.02 0.00 60 1011.3
20260503051540 47 29 3.0 11.0 0.00 0.02 0.00 59 1010.6
20260503051336 48 360 4.0 11.0 0.00 0.02 0.00 59 1011.2
20260503050846 48 16 4.0 11.0 0.00 0.02 0.00 60 1011.2
20260503050357 48 336 3.0 6.0 0.00 0.02 0.00 61 1011.3
20260503050122 47 28 2.0 5.0 0.00 0.02 0.00 60 1011.4
20260503050037 47 0 2.0 5.0 0.00 0.02 0.00 60 1010.7
20260503045843 48 17 2.0 4.0 0.00 0.02 0.00 61 1011.4
20260503045416 48 331 2.0 5.0 0.00 0.02 0.00 62 1011.4
20260503044843 48 350 2.0 5.0 0.00 0.02 0.00 61 1011.4
20260503044611 47 337 1.0 5.0 0.00 0.02 0.00 61 1011.5
20260503044537 47 13 1.0 5.0 0.00 0.02 0.00 60 1010.8
20260503044339 48 13 2.0 4.0 0.00 0.02 0.00 61 1011.4
20260503043904 48 313 1.0 4.0 0.00 0.02 0.00 62 1011.5
20260503043355 48 333 1.0 4.0 0.00 0.02 0.00 62 1011.6
20260503043118 47 20 0.0 2.0 0.00 0.02 0.00 65 1011.7
20260503043041 48 0 0.0 3.0 0.00 0.02 0.00 65 1011.0
20260503042844 48 13 0.0 3.0 0.00 0.02 0.00 64 1011.6
20260503042354 48 13 1.0 4.0 0.00 0.02 0.00 61 1011.6
20260503041842 48 355 2.0 7.0 0.00 0.02 0.00 64 1011.6
20260503041606 48 324 0.0 7.0 0.00 0.02 0.00 61 1011.7
20260503041542 48 0 2.0 7.0 0.00 0.02 0.00 60 1011.0
20260503041350 48 347 3.0 7.0 0.00 0.02 0.00 59 1011.6
20260503040841 49 22 2.0 5.0 0.00 0.02 0.00 59 1011.6
20260503040352 49 11 2.0 6.0 0.00 0.02 0.00 61 1011.6
20260503040111 48 337 0.0 6.0 0.00 0.02 0.00 61 1011.5
20260503040041 48 0 1.0 6.0 0.00 0.02 0.00 60 1010.8
20260503035858 49 280 3.0 6.0 0.00 0.02 0.02 61 1011.4
20260503035348 49 338 2.0 5.0 0.00 0.02 0.02 62 1011.3
20260503034838 49 9 1.0 6.0 0.00 0.02 0.02 60 1011.3
20260503034622 49 5 1.0 6.0 0.00 0.02 0.02 59 1011.4
20260503034539 49 360 1.0 7.0 0.00 0.02 0.02 59 1010.7
20260503034347 49 350 2.0 6.0 0.00 0.02 0.02 60 1011.3
20260503033839 50 298 2.0 6.0 0.00 0.02 0.02 58 1011.3
20260503033349 50 360 1.0 10.0 0.00 0.02 0.02 57 1011.4
20260503033114 49 360 2.0 10.0 0.00 0.02 0.02 57 1011.4
20260503033039 49 27 2.0 10.0 0.00 0.02 0.02 56 1010.7
20260503032836 50 346 2.0 10.0 0.00 0.02 0.02 57 1011.3
20260503032347 50 38 3.0 12.0 0.00 0.02 0.02 57 1011.2
20260503031838 50 35 3.0 12.0 0.00 0.02 0.02 56 1011.3
20260503031606 50 17 3.0 12.0 0.00 0.02 0.02 57 1011.3
20260503031541 50 338 3.0 9.0 0.00 0.02 0.02 56 1010.6
20260503031349 50 330 4.0 9.0 0.00 0.02 0.02 56 1011.2
20260503030839 50 292 2.0 6.0 0.00 0.02 0.02 58 1011.2
20260503030350 50 301 2.0 6.0 0.00 0.02 0.02 58 1011.2
20260503030115 50 350 1.0 3.0 0.00 0.02 0.02 58 1011.3
20260503025837 50 329 2.0 4.0 0.00 0.02 0.02 58 1011.3
20260503025347 50 309 2.0 4.0 0.00 0.02 0.02 58 1011.3
20260503024856 50 355 1.0 4.0 0.00 0.02 0.02 58 1011.2
20260503024604 50 345 1.0 4.0 0.00 0.02 0.02 58 1011.2
20260503024542 50 298 1.0 4.0 0.00 0.02 0.02 58 1010.7
20260503024407 50 5 2.0 4.0 0.00 0.02 0.02 58 1011.2
20260503023835 51 5 2.0 4.0 0.00 0.02 0.02 58 1011.2
20260503023345 51 18 2.0 4.0 0.00 0.02 0.02 58 1011.3
20260503023112 50 330 1.0 3.0 0.00 0.02 0.02 58 1011.3